USA 253                 
1 40099U 14043A   19264.11805556 -.00000166  00000-0  00000+0 0  9990
2 40099   0.1761 115.0556 0000624 174.3389 193.0193  1.00375077  3389
USA 254                 
1 40100U 14043B   19264.48394837  .00000121  00000-0  00000+0 0  9998
2 40100   0.1632  96.9656 0001385 150.3405 136.7642  1.00437073  3080
USA 255                 
1 40101U 14043C   19263.29294628 -.00000221  00000-0  00000+0 0  9996
2 40101   3.5043  74.6939 0012596 263.0785  97.1273  0.98725763   999
DELTA 4 R/B             
1 40102U 14043D   19265.01194082  .00000059  00000-0  00000+0 0  9990
2 40102   3.4761  74.9281 0011280 250.2432 109.9704  0.98911133  1692